Weather History for Woodward, OK

Change the Weather History Date:

Monday, January 28, 2013

  Actual Average (KGAG) Record (KGAG)
Temperature  
Mean Temperature 60 °F -  
Max Temperature 73 °F 48 °F 78 °F (2008)
Min Temperature 48 °F 21 °F -2 °F (1948)
Degree Days  
Heating Degree Days 4    
Growing Degree Days 10 (Base 50)    
Moisture  
Dew Point 37 °F    
Average Humidity 41    
Maximum Humidity 58    
Minimum Humidity 25    
Precipitation  
Precipitation 0.00 in - - ()
Sea Level Pressure  
Sea Level Pressure 29.77 in    
Wind  
Wind Speed 14 mph (SSW)    
Max Wind Speed 26 mph    
Max Gust Speed 33 mph    
Visibility 10 miles    
Events      
Averages and records for this station are not official NWS values.
T = Trace of Precipitation, MM = Missing Value Source: NWS Daily Summary

Daily Weather History Graph

Daily Weather History Graph

Search for Another Location

Airport:

Trip Planner

Search our weather history database for the weather conditions in past years. The results will help you decide how hot, cold, wet, or windy it might be!

Date:

Astronomy

Jan. 28, 2013 Rise Set
Actual Time 7:42 AM CST 6:00 PM CST
Civil Twilight 7:14 AM CST 6:27 PM CST
Nautical Twilight 6:43 AM CST 6:58 PM CST
Astronomical Twilight 6:13 AM CST 7:29 PM CST
Moon 7:51 PM CST (1/28) 8:12 AM CST (1/28)
Length of Visible Light 11h 12m
Length of Day
10h 18m
Full, 98% of the Moon is Illuminated
Jan 28
Full
Feb 3
Last Quarter
Feb 10
New
Feb 17
First Quarter
Feb 25
Full

Hourly Weather History & Observations

Time (CST) Temp. Dew Point Humidity Pressure Visibility Wind Dir Wind Speed Gust Speed Precip Events Conditions
12:15 AM 53.6 °F 33.8 °F 47% 29.82 in 10.0 mi SSW 11.5 mph - N/A   Clear
12:35 AM 55.4 °F 33.8 °F 44% 29.81 in 10.0 mi SSW 12.7 mph - N/A   Clear
12:55 AM 55.4 °F 33.8 °F 44% 29.81 in 10.0 mi SSW 13.8 mph - N/A   Clear
1:15 AM 55.4 °F 33.8 °F 44% 29.81 in 10.0 mi SSW 15.0 mph - N/A   Clear
1:35 AM 55.4 °F 33.8 °F 44% 29.82 in 10.0 mi SW 10.4 mph - N/A   Clear
1:55 AM 53.6 °F 33.8 °F 47% 29.82 in 10.0 mi SSW 12.7 mph - N/A   Clear
2:15 AM 53.6 °F 33.8 °F 47% 29.82 in 10.0 mi SW 12.7 mph - N/A   Clear
2:35 AM 53.6 °F 33.8 °F 47% 29.83 in 10.0 mi SW 11.5 mph - N/A   Clear
2:55 AM 51.8 °F 33.8 °F 50% 29.83 in 10.0 mi SSW 12.7 mph - N/A   Clear
3:15 AM 51.8 °F 33.8 °F 50% 29.83 in 10.0 mi SSW 12.7 mph - N/A   Clear
3:35 AM 51.8 °F 33.8 °F 50% 29.83 in 10.0 mi SW 13.8 mph - N/A   Clear
3:55 AM 50.0 °F 33.8 °F 54% 29.83 in 10.0 mi SSW 11.5 mph - N/A   Clear
4:15 AM 51.8 °F 33.8 °F 50% 29.83 in 10.0 mi SSW 12.7 mph - N/A   Clear
4:35 AM 51.8 °F 33.8 °F 50% 29.83 in 10.0 mi SSW 10.4 mph - N/A   Clear
4:55 AM 50.0 °F 33.8 °F 54% 29.83 in 10.0 mi SSW 10.4 mph - N/A   Clear
5:15 AM 48.2 °F 33.8 °F 58% 29.83 in 10.0 mi SSW 10.4 mph - N/A   Clear
5:35 AM 48.2 °F 33.8 °F 58% 29.84 in 10.0 mi SSW 10.4 mph - N/A   Clear
5:55 AM 50.0 °F 33.8 °F 54% 29.84 in 10.0 mi SSW 9.2 mph - N/A   Clear
6:15 AM 50.0 °F 33.8 °F 54% 29.83 in 10.0 mi SSW 10.4 mph - N/A   Clear
6:35 AM 50.0 °F 33.8 °F 54% 29.84 in 10.0 mi SSW 10.4 mph - N/A   Clear
6:55 AM 50.0 °F 35.6 °F 58% 29.84 in 10.0 mi SSW 10.4 mph - N/A   Clear
7:35 AM 50.0 °F 35.6 °F 58% 29.85 in 10.0 mi SSW 9.2 mph - N/A   Clear
7:55 AM 50.0 °F 35.6 °F 58% 29.85 in 10.0 mi SSW 10.4 mph - N/A   Clear
8:15 AM 51.8 °F 35.6 °F 54% 29.85 in 10.0 mi SSW 9.2 mph - N/A   Clear
8:35 AM 51.8 °F 35.6 °F 54% 29.86 in 10.0 mi SSW 10.4 mph - N/A   Clear
8:55 AM 53.6 °F 35.6 °F 51% 29.86 in 10.0 mi SSW 9.2 mph - N/A   Clear
9:35 AM 59.0 °F 35.6 °F 42% 29.85 in 10.0 mi SW 13.8 mph - N/A   Clear
9:55 AM 62.6 °F 35.6 °F 37% 29.85 in 10.0 mi SW 11.5 mph 17.3 mph N/A   Clear
10:15 AM 68.0 °F 33.8 °F 28% 29.85 in 10.0 mi SW 17.3 mph - N/A   Scattered Clouds
10:35 AM 68.0 °F 33.8 °F 28% 29.85 in 10.0 mi SW 13.8 mph - N/A   Scattered Clouds
10:55 AM 69.8 °F 33.8 °F 27% 29.85 in 10.0 mi SSW 16.1 mph 21.9 mph N/A   Clear
11:15 AM 69.8 °F 33.8 °F 27% 29.85 in 10.0 mi South 17.3 mph 21.9 mph N/A   Clear
11:35 AM 69.8 °F 33.8 °F 27% 29.83 in 10.0 mi South 18.4 mph 23.0 mph N/A   Clear
11:55 AM 69.8 °F 33.8 °F 27% 29.83 in 10.0 mi South 17.3 mph - N/A   Clear
12:15 PM 71.6 °F 35.6 °F 27% 29.81 in 10.0 mi South 19.6 mph 25.3 mph N/A   Clear
12:35 PM 71.6 °F 35.6 °F 27% 29.79 in 10.0 mi South 24.2 mph 29.9 mph N/A   Clear
12:55 PM 71.6 °F 41.0 °F 33% 29.77 in 10.0 mi South 20.7 mph 29.9 mph N/A   Clear
1:15 PM 71.6 °F 41.0 °F 33% 29.76 in 10.0 mi South 20.7 mph 27.6 mph N/A   Clear
1:35 PM 73.4 °F 42.8 °F 33% 29.75 in 10.0 mi South 23.0 mph 27.6 mph N/A   Clear
1:55 PM 73.4 °F 42.8 °F 33% 29.74 in 10.0 mi SSW 20.7 mph 32.2 mph N/A   Clear
2:15 PM 73.4 °F 42.8 °F 33% 29.72 in 10.0 mi South 25.3 mph 33.4 mph N/A   Clear
2:35 PM 73.4 °F 41.0 °F 31% 29.72 in 10.0 mi SSW 23.0 mph 29.9 mph N/A   Clear
2:55 PM 73.4 °F 41.0 °F 31% 29.71 in 10.0 mi South 20.7 mph 32.2 mph N/A   Clear
3:15 PM 73.4 °F 41.0 °F 31% 29.71 in 10.0 mi South 26.5 mph 29.9 mph N/A   Clear
3:35 PM 73.4 °F 39.2 °F 29% 29.70 in 10.0 mi SSW 20.7 mph 33.4 mph N/A   Clear
3:55 PM 73.4 °F 35.6 °F 25% 29.70 in 10.0 mi SSW 20.7 mph 28.8 mph N/A   Clear
4:15 PM 73.4 °F 37.4 °F 27% 29.70 in 10.0 mi SSW 23.0 mph 29.9 mph N/A   Clear
4:35 PM 73.4 °F 37.4 °F 27% 29.69 in 10.0 mi SSW 20.7 mph 31.1 mph N/A   Clear
4:55 PM 73.4 °F 41.0 °F 31% 29.69 in 10.0 mi South 19.6 mph 27.6 mph N/A   Clear
5:15 PM 71.6 °F 44.6 °F 38% 29.68 in 10.0 mi South 17.3 mph 25.3 mph N/A   Scattered Clouds
5:35 PM 71.6 °F 44.6 °F 38% 29.69 in 10.0 mi South 16.1 mph - N/A   Scattered Clouds
5:55 PM 69.8 °F 44.6 °F 40% 29.68 in 10.0 mi South 16.1 mph 23.0 mph N/A   Mostly Cloudy
6:15 PM 69.8 °F 46.4 °F 43% 29.69 in 10.0 mi South 15.0 mph - N/A   Mostly Cloudy
6:35 PM 68.0 °F 48.2 °F 49% 29.69 in 10.0 mi South 13.8 mph - N/A   Scattered Clouds
6:55 PM 68.0 °F 46.4 °F 46% 29.69 in 10.0 mi South 15.0 mph - N/A   Scattered Clouds
7:15 PM 68.0 °F 44.6 °F 43% 29.69 in 10.0 mi South 13.8 mph - N/A   Scattered Clouds
7:35 PM 66.2 °F 44.6 °F 46% 29.70 in 10.0 mi South 13.8 mph - N/A   Scattered Clouds
7:55 PM 64.4 °F 44.6 °F 49% 29.70 in 10.0 mi SSW 10.4 mph - N/A   Scattered Clouds
8:15 PM 62.6 °F 42.8 °F 48% 29.70 in 10.0 mi SSW 12.7 mph 17.3 mph N/A   Clear
8:35 PM 64.4 °F 42.8 °F 45% 29.71 in 10.0 mi SSW 16.1 mph - N/A   Clear
8:55 PM 64.4 °F 41.0 °F 42% 29.70 in 10.0 mi South 17.3 mph - N/A   Clear
9:15 PM 64.4 °F 41.0 °F 42% 29.70 in 10.0 mi SSW 16.1 mph 21.9 mph N/A   Clear
9:35 PM 64.4 °F 37.4 °F 37% 29.70 in 10.0 mi SSW 16.1 mph 21.9 mph N/A   Clear
9:55 PM 64.4 °F 35.6 °F 34% 29.70 in 10.0 mi SSW 17.3 mph - N/A   Clear
10:15 PM 64.4 °F 33.8 °F 32% 29.69 in 10.0 mi SSW 17.3 mph 21.9 mph N/A   Clear
10:35 PM 62.6 °F 32.0 °F 32% 29.69 in 10.0 mi SSW 19.6 mph 24.2 mph N/A   Clear
10:55 PM 62.6 °F 32.0 °F 32% 29.70 in 10.0 mi SSW 16.1 mph - N/A   Clear
11:15 PM 62.6 °F 32.0 °F 32% 29.69 in 10.0 mi SSW 16.1 mph - N/A   Clear
11:35 PM 62.6 °F 32.0 °F 32% 29.68 in 10.0 mi SW 13.8 mph - N/A   Clear
11:55 PM 59.0 °F 32.0 °F 36% 29.70 in 10.0 mi SSW 12.7 mph - N/A   Clear